Terminal Aerodrome Forecast
Issued by NWS Pittsburgh, PA

Current Version | Previous Version | Text Only | Print | Product List | Glossary Off
Versions: 1 2 3 4 5 6 7 8 9 10 11 12 13 14 15 16 17 18 19 20 21 22 23 24 25 26 27 28 29 30 31 32

000
FTUS41 KPBZ 251409 AAB
TAFPIT
TAF AMD
KPIT 251409Z 2514/2618 23010KT P6SM FEW010 BKN015 BKN030
     FM251500 22007KT P6SM SCT035
     FM260000 25005KT P6SM VCTS BKN035CB
     FM260400 22006KT P6SM VCSH BKN025
     FM261500 VRB05KT P6SM SCT250=

USA.gov is the U.S. government's official web portal to all federal, state and local government web resources and services.